This is the latest recevied weather packets stored in our database for station/object N9PBY-2. If no packets are shown the sender has not sent any weather packets the latest 10 day(s).
| Time | Temp. | Humidity | Pressure | Rain* | Wind** | Luminosity | Snow |
|---|---|---|---|---|---|---|---|
| 1777854607 | 17.22° C | 38% | 1003.3 hPa | 0 mm | - | - | - |
| 1777854007 | 17.78° C | 38% | 1003.4 hPa | 0 mm | - | - | - |
| 1777853407 | 17.78° C | 37% | 1003.2 hPa | 0 mm | - | - | - |
| 1777852807 | 18.33° C | 36% | 1003.2 hPa | 0 mm | - | - | - |
| 1777852207 | 18.33° C | 36% | 1003.2 hPa | 0 mm | - | - | - |
| 1777851607 | 18.33° C | 35% | 1003 hPa | 0 mm | - | - | - |
| 1777851007 | 18.89° C | 34% | 1003.1 hPa | 0 mm | - | - | - |
| 1777850407 | 18.89° C | 34% | 1003.3 hPa | 0 mm | - | - | - |
| 1777849807 | 19.44° C | 33% | 1003.4 hPa | 0 mm | - | - | - |
| 1777849208 | 20° C | 32% | 1003.5 hPa | 0 mm | - | - | - |
| 1777848607 | 20° C | 32% | 1003.3 hPa | 0 mm | - | - | - |
| 1777848007 | 20° C | 33% | 1003.4 hPa | 0 mm | - | - | - |
| 1777847406 | 20° C | 32% | 1003.4 hPa | 0 mm | - | - | - |
| 1777846806 | 20° C | 31% | 1003.6 hPa | 0 mm | - | - | - |
| 1777846207 | 20° C | 32% | 1003.5 hPa | 0 mm | - | - | - |
| 1777845607 | 19.44° C | 33% | 1003.6 hPa | 0 mm | - | - | - |
| 1777845007 | 20° C | 31% | 1003.6 hPa | 0 mm | - | - | - |
| 1777844408 | 20° C | 33% | 1003.6 hPa | 0 mm | - | - | - |
| 1777843807 | 19.44° C | 32% | 1003.8 hPa | 0 mm | - | - | - |
| 1777843207 | 19.44° C | 34% | 1003.8 hPa | 0 mm | - | - | - |
| 1777842607 | 20° C | 34% | 1004 hPa | 0 mm | - | - | - |
| 1777842007 | 20° C | 33% | 1004 hPa | 0 mm | - | - | - |
| 1777841406 | 20° C | 33% | 1004.3 hPa | 0 mm | - | - | - |
| 1777840807 | 19.44° C | 34% | 1004.3 hPa | 0 mm | - | - | - |
| 1777839607 | 19.44° C | 33% | 1004.8 hPa | 0 mm | - | - | - |
* Rain latest hour (hover to see other rain measurements)
** Current wind speed in m/s (hover to see current wind gust speed)